Change the Weather History Date:

Sunday, November 18, 2012

  Actual Average Record
Temperature  
Mean Temperature 29 °F -  
Max Temperature 32 °F 38 °F 62 °F (2005)
Min Temperature 26 °F 27 °F 19 °F (1999)
Degree Days  
Heating Degree Days 36    
Moisture  
Dew Point 20 °F    
Average Humidity 67    
Maximum Humidity 86    
Minimum Humidity 52    
Precipitation  
Precipitation 0.00 in 0.19 in - ()
Sea Level Pressure  
Sea Level Pressure 30.41 in    
Wind  
Wind Speed 13 mph ()    
Max Wind Speed 20 mph    
Max Gust Speed 31 mph    
Visibility 15.0 miles    
Events      
Averages and records for this station are not official NWS values.
T = Trace of Precipitation, MM = Missing Value Source: Averaged Metar Reports

Daily Weather History Graph

Daily Weather History Graph

Search for Another Location

Airport or City:

Trip Planner

Search our weather history database for the weather conditions in past years. The results will help you decide how hot, cold, wet, or windy it might be!

Date:

Astronomy

Nov. 18, 2012 Rise Set
Actual Time 7:11 AM NST 4:20 PM NST
Civil Twilight 6:37 AM NST 4:54 PM NST
Nautical Twilight 5:59 AM NST 5:32 PM NST
Astronomical Twilight 5:23 AM NST 6:08 PM NST
Moon 11:30 AM NST (11/18) 9:39 PM NST (11/18)
Length of Visible Light 10h 17m
Length of Day
9h 09m
Waxing Crescent, 29% of the Moon is Illuminated
Nov 18
Waxing Crescent
Nov 20
First Quarter
Nov 28
Full
Dec 6
Last Quarter
Dec 13
New

Hourly Weather History & Observations

Time (NST) Temp. Windchill Dew Point Humidity Pressure Visibility Wind Dir Wind Speed Gust Speed Precip Events Conditions
12:30 AM 28.4 °F 19.1 °F 23.0 °F 80% 30.32 in 15.0 mi NW 10.4 mph - N/A   Partly Cloudy
1:30 AM 28.4 °F 16.6 °F 23.0 °F 80% 30.32 in 15.0 mi NW 16.1 mph 21.9 mph N/A   Partly Cloudy
2:30 AM 28 °F - 23 °F 72% 30.34 in 15 mi NW 11.5 mph - -   Scattered Clouds
2:30 AM 28.4 °F 18.0 °F 23.0 °F 80% 30.34 in 15.0 mi NW 12.7 mph - N/A   Partly Cloudy
3:30 AM 26.6 °F 16.8 °F 23.0 °F 86% 30.35 in 15.0 mi NW 10.4 mph - N/A   Scattered Clouds
4:30 AM 26.6 °F 16.2 °F 21.2 °F 80% 30.34 in 15.0 mi NW 11.5 mph - N/A   Partly Cloudy
5:30 AM 28.4 °F 19.7 °F 23.0 °F 80% 30.35 in 15.0 mi NW 9.2 mph - N/A   Partly Cloudy
6:30 AM 28.4 °F 15.8 °F 19.4 °F 69% 30.36 in 15.0 mi NW 18.4 mph - N/A   Mostly Cloudy
7:30 AM 28.4 °F 15.4 °F 19.4 °F 69% 30.38 in 15.0 mi NW 19.6 mph 31.1 mph N/A   Scattered Clouds
8:30 AM 30 °F - 21 °F 58% 30.40 in 15 mi NW 17.3 mph - -   Partly Cloudy
8:30 AM 30.2 °F 18.9 °F 21.2 °F 69% 30.39 in 15.0 mi NW 16.1 mph 25.3 mph N/A   Mostly Cloudy
9:30 AM 32.0 °F 22.5 °F 19.4 °F 60% 30.40 in 15.0 mi NW 12.7 mph 24.2 mph N/A   Mostly Cloudy
10:30 AM 30.2 °F 17.8 °F 19.4 °F 64% 30.41 in 15.0 mi NW 19.6 mph 25.3 mph N/A   Mostly Cloudy
11:30 AM 30.2 °F 18.1 °F 19.4 °F 64% 30.41 in 15.0 mi NW 18.4 mph 26.5 mph N/A   Mostly Cloudy
12:30 PM 32.0 °F 20.1 °F 21.2 °F 64% 30.41 in 15.0 mi NW 19.6 mph 26.5 mph N/A   Mostly Cloudy
1:30 PM 32.0 °F 21.6 °F 19.4 °F 60% 30.42 in 15.0 mi NW 15.0 mph 23.0 mph N/A   Scattered Clouds
2:30 PM 31 °F - 20 °F 53% 30.43 in 15 mi NW 17.3 mph - -   Scattered Clouds
2:30 PM 32.0 °F 20.5 °F 19.4 °F 60% 30.43 in 15.0 mi NW 18.4 mph - N/A   Partly Cloudy
3:30 PM 30.2 °F 20.2 °F 19.4 °F 64% 30.44 in 15.0 mi NW 12.7 mph 21.9 mph N/A   Partly Cloudy
4:30 PM 28.4 °F 16.6 °F 15.8 °F 59% 30.45 in 15.0 mi NW 16.1 mph - N/A   Partly Cloudy
5:30 PM 28.4 °F 19.1 °F 17.6 °F 64% 30.46 in 15.0 mi NW 10.4 mph 19.6 mph N/A   Partly Cloudy
6:30 PM 28.4 °F 17.5 °F 15.8 °F 59% 30.47 in 15.0 mi NW 13.8 mph - N/A   Partly Cloudy
7:30 PM 28.4 °F 17.5 °F 17.6 °F 64% 30.47 in 15.0 mi NW 13.8 mph - N/A   Clear
8:30 PM 28 °F - 17 °F 52% 30.48 in 15 mi WNW 13.8 mph - -  
8:30 PM 28.4 °F 18.0 °F 17.6 °F 64% 30.48 in 15.0 mi WNW 12.7 mph 19.6 mph N/A   Clear
9:30 PM 28.4 °F 17.5 °F 17.6 °F 64% 30.48 in 15.0 mi NW 13.8 mph 19.6 mph N/A   Partly Cloudy
10:30 PM 28.4 °F 15.8 °F 17.6 °F 64% 30.48 in 15.0 mi NW 18.4 mph - N/A   Partly Cloudy
11:30 PM 26.6 °F 15.7 °F 17.6 °F 69% 30.47 in 15.0 mi WNW 12.7 mph - N/A   Clear